Regional Weather Roundup
Issued by NWS

Home | Current Version | Previous Version | Graphics & Text | Print | Product List | Glossary On
Versions: 1 2 3 4 5 6 7 8 9 10 11 12 13 14 15 16 17 18 19 20 21 22 23 24 25 26 27
000
ASUS45 KCYS 190610
RWRWY

WYOMING REGIONAL WEATHER ROUNDUP
NATIONAL WEATHER SERVICE CHEYENNE WY
1100 PM MST SAT FEB 18 2017

NOTE:  "FAIR" INDICATES FEW OR NO CLOUDS BELOW 12,000 FEET
WITH NO SIGNIFICANT WEATHER AND/OR OBSTRUCTIONS TO VISIBILITY.

WYZ001-190700-
YELLOWSTONE NATIONAL PARK

CITY           SKY/WX    TMP DP  RH WIND       PRES   REMARKS
LK YELLOWSTONE   N/A     31  30  96 CALM      29.62S
6HR MIN TEMP:  31; 6HR MAX TEMP:  32; 6HR PCP:  0.04;

W YELLOWSTONE  NOT AVBL

$$
WYZ002>013-054>058-071-098>099-190700-
NORTHERN WYOMING

CITY           SKY/WX    TMP DP  RH WIND       PRES   REMARKS
JACKSON        MOCLDY    34  32  93 W12       29.63S WCI  25
CODY           CLOUDY    38  29  70 SE8       29.55S WCI  32
GREYBULL       FAIR      43  32  65 SE6       29.55S
6HR MIN TEMP:  42; 6HR MAX TEMP:  46;

WORLAND        FAIR      36  33  89 SE14      29.56F WCI  27
6HR MIN TEMP:  35; 6HR MAX TEMP:  47;

SHERIDAN       FAIR      34  30  85 VRB5      29.53S WCI  30
6HR MIN TEMP:  33; 6HR MAX TEMP:  46;

BUFFALO        FAIR      50  26  39 S8        29.55F
6HR MIN TEMP:  46; 6HR MAX TEMP:  53;

GILLETTE       FAIR      47  33  58 S20G30    29.56F
6HR MIN TEMP:  47; 6HR MAX TEMP:  56;

HULETT         MOCLDY    48  32  53 S8        29.61S
NEWCASTLE      FAIR      41  30  65 NE5       29.65S

$$
WYZ014>020-022>026-101>103-190700-
CENTRAL WYOMING

CITY           SKY/WX    TMP DP  RH WIND       PRES   REMARKS
BIG PINEY      CLOUDY    30  29  96 CALM      29.69F
6HR MIN TEMP:  28; 6HR MAX TEMP:  33;

PINEDALE       CLOUDY    32  30  93 CALM      29.71R
DUBOIS         CLOUDY    32  27  80 W3        29.61S
LANDER         FAIR      35  28  75 CALM      29.59S
6HR MIN TEMP:  35; 6HR MAX TEMP:  44;

RIVERTON       FAIR      38  30  73 S12       29.60F WCI  30
6HR MIN TEMP:  37; 6HR MAX TEMP:  42;

CASPER         FAIR      42  32  67 SW16G26   29.65S
6HR MIN TEMP:  40; 6HR MAX TEMP:  50;

DOUGLAS        FAIR      44  30  57 W8        29.66F
6HR MIN TEMP:  42; 6HR MAX TEMP:  57;


$$
WYZ021-027>030-104>119-190700-
SOUTHERN WYOMING

CITY           SKY/WX    TMP DP  RH WIND       PRES   REMARKS
EVANSTON       MOCLDY    35  27  72 SE6       29.67S WCI  30
6HR MIN TEMP:  34; 6HR MAX TEMP:  37;

KEMMERER         N/A     32  30  93 N6        29.69S WCI  26
FORT BRIDGER   MOCLDY    32  32 100 CALM      29.70S
ROCK SPRINGS   MOCLDY    38  29  70 S17       29.68F WCI  28
6HR MIN TEMP:  36; 6HR MAX TEMP:  39;

DIXON            N/A     32  30  92 CALM      29.79R
RAWLINS        MOCLDY    36  30  79 S8        29.74S WCI  30
6HR MIN TEMP:  35; 6HR MAX TEMP:  41;

SARATOGA       FAIR      30  30 100 S5        29.74F WCI  25
LARAMIE        FAIR      27  24  89 W5        29.73S WCI  22
6HR MIN TEMP:  26; 6HR MAX TEMP:  49;

CHEYENNE       FAIR      32  21  64 W9        29.68F WCI  24
6HR MIN TEMP:  32; 6HR MAX TEMP:  53;

TORRINGTON     FAIR      38  26  62 SE5       29.65F WCI  34
6HR MIN TEMP:  37; 6HR MAX TEMP:  59;

PINE BLUFFS    FAIR      45  21  39 S8        29.66F

$$




USA.gov is the U.S. government's official web portal to all federal, state and local government web resources and services.